Location: Unspecified
(50.7693°N, 0.0000°E)
Time: 00:54:15
(UTC+00:00)

SR - Pass Details

Date: 27 June 2019
Orbit: 580 x 876 km, 66.7° (Epoch: 22 July)

Event Time Altitude Azimuth Distance (km) Brightness Sun altitude
Rises 10:59:28 0° 320° (NW) 3,006 ? 59.9°
Reaches altitude 10° 11:01:42 10° 318° (NW) 2,132 ? 60.1°
Maximum altitude 11:06:30 66° 237° (WSW) 795 ? 60.4°
Drops below altitude 10° 11:11:44 10° 156° (SSE) 2,314 ? 60.8°
Sets 11:14:15 0° 154° (SSE) 3,284 ? 61.0°
